Location: Montreal
(45.5087°N, 73.5540°W)
Time: 18:43:24
(UTC-04:00)

Envisat - Pass Details

Date: 07 February 2023
Orbit: 763 x 765 km, 98.2° (Epoch: 20 March)

Event Time Altitude Azimuth Distance (km) Brightness Sun altitude
Rises 04:53:24 0° 6° (N) 3,243 6.3 -23.9°
Reaches altitude 10° 04:55:52 10° 358° (N) 2,312 5.5 -23.5°
Enters shadow 04:58:23 25° 337° (NNW) 1,503 4.3 -23.1°
